Eek, AK

10:25 AM AKST on February 09, 2016 (GMT -0900)
Quinhagak

Weather History for PAQH - January, 2014

Change the Weather History Date:

Wednesday, January 1, 2014

  Actual Average (PABE) Record (PABE)
Temperature  
Mean Temperature 19 °F -  
Max Temperature 24 °F 13 °F 44 °F (1942)
Min Temperature 14 °F - -44 °F (1949)
Degree Days  
Heating Degree Days 46 58  
Month to date heating degree days 58  
Since 1 July heating degree days 5482  
Cooling Degree Days 0    
Month to date cooling degree days  
Year to date cooling degree days  
Moisture  
Dew Point 14 °F    
Average Humidity 88    
Maximum Humidity 93    
Minimum Humidity 79    
Precipitation  
Precipitation 0.00 in 0.03 in 0.35 in (1993)
Month to date precipitation 0.03  
Year to date precipitation 0.03  
Snow  
Snow 0.00 in 0.40 in 4.10 in (1955)
Month to date snowfall 0.4  
Since 1 July snowfall 29.7  
Snow Depth -    
Sea Level Pressure  
Sea Level Pressure 29.29 in    
Wind  
Wind Speed 7 mph (West)    
Max Wind Speed 10 mph    
Max Gust Speed -    
Visibility 9 miles    
Events Snow    
T = Trace of Precipitation, MM = Missing Value Source: NWS Daily Summary

Daily Weather History Graph

Daily Weather History Graph

Search for Another Location

Airport or City:

Trip Planner

Search our weather history database for the weather conditions in past years. The results will help you decide how hot, cold, wet, or windy it might be!

Date:

Astronomy

Jan. 01, 2014 Rise Set
Actual Time 10:47 AM AKST 4:55 PM AKST
Civil Twilight 9:51 AM AKST 5:51 PM AKST
Nautical Twilight 8:55 AM AKST 6:46 PM AKST
Astronomical Twilight 8:04 AM AKST 7:37 PM AKST
Moon 10:24 AM AKST (1/1) 6:21 PM AKST (1/1)
Length of Visible Light 7h 59m
Length of Day
6h 08m
New Moon, 0% of the Moon is Illuminated
Jan 1
New Moon
Jan 7
First Quarter
Jan 15
Full
Jan 23
Last Quarter
Jan 30
New

Hourly Weather History & Observations

Time (AKST) Temp. Windchill Dew Point Humidity Pressure Visibility Wind Dir Wind Speed Gust Speed Precip Events Conditions
12:56 AM 19.0 °F 8.2 °F 16.0 °F 88% 29.01 in 5.0 mi NNE 9.2 mph - 0.00 in Snow Light Snow
1:56 AM 19.0 °F 7.5 °F 16.0 °F 88% 29.01 in 6.0 mi NNE 10.4 mph - 0.00 in Snow Light Snow
2:33 AM 17.6 °F 6.4 °F 15.8 °F 93% 29.02 in 9.0 mi NNW 9.2 mph - 0.00 in Snow Light Snow
3:56 AM 15.1 °F 2.5 °F 12.0 °F 88% 29.04 in 9.0 mi NW 10.4 mph - 0.00 in Snow Light Snow
4:56 AM 16.0 °F 4.4 °F 12.9 °F 88% 29.06 in 7.0 mi NW 9.2 mph - 0.00 in Snow Light Snow
5:56 AM 15.1 °F 4.2 °F 12.0 °F 88% 29.08 in 10.0 mi NW 8.1 mph - 0.00 in   Overcast
6:56 AM 14.0 °F 6.5 °F 10.9 °F 88% 29.09 in 10.0 mi NNW 4.6 mph - N/A   Overcast
7:56 AM 14.0 °F 8.2 °F 12.0 °F 92% 29.11 in 7.0 mi West 3.5 mph - 0.00 in Snow Light Snow
8:21 AM 14.0 °F 6.5 °F 12.2 °F 93% 29.12 in 1.8 mi West 4.6 mph - 0.00 in Snow Light Snow
8:31 AM 14.0 °F 6.5 °F 12.2 °F 93% 29.12 in 2.5 mi West 4.6 mph - 0.00 in Snow Light Snow
8:37 AM 15.8 °F 8.6 °F 12.2 °F 86% 29.13 in 6.0 mi West 4.6 mph - 0.00 in Snow Light Snow
8:56 AM 15.1 °F 7.7 °F 12.0 °F 88% 29.14 in 5.0 mi West 4.6 mph - 0.00 in Snow Light Snow
9:47 AM 15.8 °F 8.6 °F 12.2 °F 86% 29.16 in 9.0 mi West 4.6 mph - 0.00 in Snow Light Snow
9:56 AM 15.1 °F 7.7 °F 12.0 °F 88% 29.17 in 10.0 mi WNW 4.6 mph - 0.00 in   Overcast
10:36 AM 14.0 °F 6.5 °F 10.4 °F 86% 29.20 in 10.0 mi WNW 4.6 mph - N/A   Overcast
10:56 AM 14.0 °F 6.5 °F 10.9 °F 88% 29.22 in 10.0 mi West 4.6 mph - N/A   Overcast
11:28 AM 15.8 °F 8.6 °F 12.2 °F 86% 29.23 in 10.0 mi NW 4.6 mph - N/A   Overcast
11:56 AM 16.0 °F 10.4 °F 12.0 °F 84% 29.25 in 10.0 mi West 3.5 mph - N/A   Overcast
12:56 PM 18.0 °F 7.7 °F 15.1 °F 88% 29.28 in 10.0 mi SW 8.1 mph - N/A   Overcast
1:13 PM 17.6 °F 7.3 °F 14.0 °F 86% 29.29 in 10.0 mi SSW 8.1 mph - N/A   Overcast
1:56 PM 19.0 °F 8.2 °F 15.1 °F 85% 29.31 in 10.0 mi SW 9.2 mph - N/A   Overcast
2:23 PM 17.6 °F 6.4 °F 14.0 °F 86% 29.33 in 10.0 mi WSW 9.2 mph - N/A   Overcast
2:56 PM 17.1 °F 5.8 °F 14.0 °F 88% 29.36 in 10.0 mi West 9.2 mph - N/A   Overcast
3:56 PM 15.1 °F 5.2 °F 12.0 °F 88% 29.40 in 10.0 mi West 6.9 mph - N/A   Overcast
4:29 PM 15.8 °F 7.2 °F 12.2 °F 86% 29.42 in 10.0 mi WNW 5.8 mph - N/A   Overcast
4:56 PM 16.0 °F - 12.0 °F 84% 29.44 in 9.0 mi Calm Calm - 0.00 in Snow Light Snow
5:19 PM 15.8 °F - 10.4 °F 79% 29.45 in 10.0 mi Calm Calm - 0.00 in   Mostly Cloudy
5:56 PM 15.1 °F 6.4 °F 12.9 °F 91% 29.48 in 10.0 mi SSE 5.8 mph - 0.00 in   Mostly Cloudy
6:30 PM 17.6 °F 9.3 °F 15.8 °F 93% 29.49 in 10.0 mi SSW 5.8 mph - N/A   Overcast
6:56 PM 19.9 °F 9.3 °F 17.1 °F 89% 29.52 in 10.0 mi SSW 9.2 mph - N/A   Overcast
7:56 PM 21.9 °F 12.5 °F 19.0 °F 89% 29.55 in 10.0 mi SSW 8.1 mph - N/A   Overcast
8:56 PM 21.9 °F 11.7 °F 19.9 °F 92% 29.58 in 10.0 mi South 9.2 mph - N/A   Overcast
9:56 PM 24.1 °F 16.0 °F 19.9 °F 84% 29.60 in 10.0 mi SW 6.9 mph - N/A   Overcast
10:56 PM 23.0 °F 13.9 °F 19.9 °F 88% 29.63 in 10.0 mi SW 8.1 mph - N/A   Overcast
11:26 PM 23.0 °F 14.7 °F 21.2 °F 93% 29.64 in 10.0 mi SSW 6.9 mph - N/A   Overcast
11:56 PM 23.0 °F 17.0 °F 21.0 °F 92% 29.65 in 10.0 mi SSW 4.6 mph - N/A   Overcast